TimeCDT,TemperatureF,Dew PointF,Humidity,Sea Level PressureIn,VisibilityMPH,Wind Direction,Wind SpeedMPH,Gust SpeedMPH,PrecipitationIn,Events,Conditions,WindDirDegrees,DateUTC
12:53 AM,48.0,46.9,96,30.03,9.0,Calm,Calm,-,N/A,,Clear,0,2013-10-23 05:53:00
1:53 AM,46.9,45.0,93,30.03,4.0,Calm,Calm,-,N/A,,Clear,0,2013-10-23 06:53:00
2:04 AM,46.9,46.0,97,30.03,2.5,Calm,Calm,-,N/A,,Clear,0,2013-10-23 07:04:00
2:11 AM,46.9,46.0,97,30.03,5.0,Calm,Calm,-,N/A,,Clear,0,2013-10-23 07:11:00
2:15 AM,46.0,45.0,96,30.04,1.8,Calm,Calm,-,N/A,,Clear,0,2013-10-23 07:15:00
2:23 AM,45.0,45.0,100,30.04,3.0,Calm,Calm,-,N/A,,Clear,0,2013-10-23 07:23:00
2:53 AM,45.0,44.1,97,30.04,10.0,Calm,Calm,-,N/A,,Clear,0,2013-10-23 07:53:00
3:53 AM,44.1,43.0,96,30.05,9.0,Calm,Calm,-,N/A,,Clear,0,2013-10-23 08:53:00
4:53 AM,43.0,42.1,97,30.06,8.0,Calm,Calm,-,N/A,,Clear,0,2013-10-23 09:53:00
5:53 AM,42.1,41.0,96,30.09,8.0,Calm,Calm,-,N/A,,Clear,0,2013-10-23 10:53:00
6:53 AM,42.1,41.0,96,30.10,6.0,Calm,Calm,-,N/A,,Clear,0,2013-10-23 11:53:00
7:53 AM,41.0,39.9,96,30.14,8.0,Calm,Calm,-,N/A,,Clear,0,2013-10-23 12:53:00
8:53 AM,46.9,46.0,97,30.16,10.0,Calm,Calm,-,N/A,,Clear,0,2013-10-23 13:53:00
9:53 AM,54.0,46.9,77,30.16,10.0,Calm,Calm,-,N/A,,Clear,0,2013-10-23 14:53:00
10:53 AM,60.1,46.0,60,30.15,10.0,Variable,3.5,-,N/A,,Clear,0,2013-10-23 15:53:00
11:53 AM,64.0,41.0,43,30.13,10.0,Variable,4.6,-,N/A,,Clear,0,2013-10-23 16:53:00
12:53 PM,66.0,37.9,36,30.12,10.0,Calm,Calm,-,N/A,,Clear,0,2013-10-23 17:53:00
1:53 PM,66.9,37.9,34,30.09,10.0,NW,5.8,-,N/A,,Clear,310,2013-10-23 18:53:00
2:53 PM,68.0,41.0,37,30.09,10.0,Variable,6.9,-,N/A,,Clear,0,2013-10-23 19:53:00
3:53 PM,69.1,41.0,36,30.08,10.0,Calm,Calm,-,N/A,,Clear,0,2013-10-23 20:53:00
4:53 PM,66.0,44.1,45,30.07,8.0,WSW,3.5,-,N/A,,Clear,240,2013-10-23 21:53:00
5:53 PM,63.0,46.9,56,30.06,10.0,Calm,Calm,-,N/A,,Clear,0,2013-10-23 22:53:00
6:53 PM,57.9,48.0,70,30.06,10.0,Calm,Calm,-,N/A,,Clear,0,2013-10-23 23:53:00
7:53 PM,55.0,48.9,80,30.06,10.0,Calm,Calm,-,N/A,,Clear,0,2013-10-24 00:53:00
8:53 PM,54.0,48.0,80,30.04,10.0,Calm,Calm,-,N/A,,Clear,0,2013-10-24 01:53:00
9:53 PM,52.0,48.0,86,30.05,10.0,Calm,Calm,-,N/A,,Clear,0,2013-10-24 02:53:00
10:53 PM,51.1,46.9,86,30.06,10.0,Calm,Calm,-,N/A,,Clear,0,2013-10-24 03:53:00
11:53 PM,48.0,46.9,96,30.05,10.0,Calm,Calm,-,N/A,,Clear,0,2013-10-24 04:53:00